Location: Bocianicha
(51.5066°N, 19.2563°E)
Time: 13:55:27
(UTC+00:00)

USA 234 - Pass Details

Date: 15 June 2025
Orbit: 1097 x 1111 km, 123.0° (Epoch: 19 June)

Event Time Altitude Azimuth Distance (km) Brightness Sun altitude
Rises 00:34:10 0° 61° (ENE) 3,917 7.1 -11.3°
Reaches altitude 10° 00:36:39 10° 61° (ENE) 2,959 6.4 -11.2°
Maximum altitude 00:43:12 84° 335° (NNW) 1,111 3.3 -10.7°
Drops below altitude 10° 00:49:45 10° 247° (WSW) 2,959 5.1 -10.2°
Enters shadow 00:51:09 - 247° (WSW) 3,503 5.4 -10.1°
